Arbor Vitae, WI

10:39 AM CST on February 19, 2018 (GMT -0600)
Lakeland-Lee Memorial

Weather History for KARV - January, 2013

Change the Weather History Date:

Monday, January 7, 2013

  Actual Average Record
Temperature  
Mean Temperature 24 °F -  
Max Temperature 35 °F 17 °F 42 °F (1949)
Min Temperature 14 °F 0 °F -38 °F (1912)
Degree Days  
Heating Degree Days 40    
Moisture  
Dew Point 18 °F    
Average Humidity 72    
Maximum Humidity 93    
Minimum Humidity 58    
Precipitation  
Precipitation 0.00 in - - ()
Sea Level Pressure  
Sea Level Pressure 29.86 in    
Wind  
Wind Speed 10 mph (SW)    
Max Wind Speed 20 mph    
Max Gust Speed 29 mph    
Visibility 10 miles    
Events      
Averages and records for this station are not official NWS values.
T = Trace of Precipitation, MM = Missing Value Source: NWS Daily Summary

Daily Weather History Graph

Daily Weather History Graph

Search for Another Location

Airport or City:

Trip Planner

Search our weather history database for the weather conditions in past years. The results will help you decide how hot, cold, wet, or windy it might be!

Date:

Astronomy

Jan. 07, 2013 Rise Set
Actual Time 7:39 AM CST 4:31 PM CST
Civil Twilight 7:05 AM CST 5:05 PM CST
Nautical Twilight 6:28 AM CST 5:42 PM CST
Astronomical Twilight 5:52 AM CST 6:18 PM CST
Moon 3:00 AM CST (1/7) 12:44 PM CST (1/7)
Length of Visible Light 9h 59m
Length of Day
8h 51m
Waning Crescent, 22% of the Moon is Illuminated
Jan 7
Waning Crescent
Jan 11
New
Jan 18
First Quarter
Jan 26
Full
Feb 3
Last Quarter

Hourly Weather History & Observations

Time (CST) Temp. Windchill Dew Point Humidity Pressure Visibility Wind Dir Wind Speed Gust Speed Precip Events Conditions
12:15 AM 14.0 °F 3.9 °F 12.2 °F 93% 30.05 in 10.0 mi South 6.9 mph - N/A   Clear
12:35 AM 17.6 °F 6.4 °F 12.2 °F 79% 30.04 in 10.0 mi South 9.2 mph - N/A   Clear
12:55 AM 17.6 °F 7.3 °F 12.2 °F 79% 30.03 in 10.0 mi South 8.1 mph - N/A   Clear
1:15 AM 17.6 °F 7.3 °F 12.2 °F 79% 30.02 in 10.0 mi South 8.1 mph - N/A   Clear
1:35 AM 17.6 °F 8.2 °F 12.2 °F 79% 30.01 in 10.0 mi South 6.9 mph - N/A   Clear
1:55 AM 17.6 °F 8.2 °F 8.6 °F 68% 30.00 in 10.0 mi South 6.9 mph - N/A   Clear
2:15 AM 17.6 °F 5.7 °F 5.0 °F 58% 29.98 in 10.0 mi South 10.4 mph - N/A   Clear
2:35 AM 17.6 °F 4.3 °F 5.0 °F 58% 29.98 in 10.0 mi South 12.7 mph - N/A   Clear
2:55 AM 17.6 °F 3.7 °F 5.0 °F 58% 29.96 in 10.0 mi South 13.8 mph 18.4 mph N/A   Clear
3:15 AM 19.4 °F 5.0 °F 8.6 °F 63% 29.94 in 10.0 mi South 16.1 mph 24.2 mph N/A   Clear
3:35 AM 19.4 °F 6.0 °F 10.4 °F 68% 29.92 in 10.0 mi SSW 13.8 mph 28.8 mph N/A   Clear
3:55 AM 19.4 °F 5.0 °F 10.4 °F 68% 29.91 in 10.0 mi SSW 16.1 mph 21.9 mph N/A   Clear
4:15 AM 17.6 °F 3.7 °F 10.4 °F 73% 29.91 in 10.0 mi SSW 13.8 mph 21.9 mph N/A   Clear
4:35 AM 17.6 °F 3.7 °F 10.4 °F 73% 29.90 in 10.0 mi SSW 13.8 mph 19.6 mph N/A   Clear
4:55 AM 17.6 °F 4.3 °F 10.4 °F 73% 29.89 in 10.0 mi SSW 12.7 mph 19.6 mph N/A   Clear
5:15 AM 19.4 °F 5.5 °F 12.2 °F 74% 29.86 in 10.0 mi SSW 15.0 mph - N/A   Clear
5:35 AM 19.4 °F 4.1 °F 12.2 °F 74% 29.86 in 10.0 mi South 18.4 mph 23.0 mph N/A   Clear
5:55 AM 19.4 °F 5.5 °F 14.0 °F 80% 29.83 in 10.0 mi South 15.0 mph 20.7 mph N/A   Clear
6:15 AM 19.4 °F 3.6 °F 14.0 °F 80% 29.83 in 10.0 mi SSW 19.6 mph 26.5 mph N/A   Clear
6:35 AM 19.4 °F 6.0 °F 14.0 °F 80% 29.84 in 10.0 mi SSW 13.8 mph 23.0 mph N/A   Clear
6:55 AM 19.4 °F 7.9 °F 14.0 °F 80% 29.84 in 10.0 mi SSW 10.4 mph - N/A   Clear
7:15 AM 19.4 °F 7.9 °F 14.0 °F 80% 29.84 in 10.0 mi SSW 10.4 mph 16.1 mph N/A   Clear
7:35 AM 19.4 °F 9.5 °F 14.0 °F 80% 29.84 in 10.0 mi SSW 8.1 mph - N/A   Clear
7:55 AM 19.4 °F 7.2 °F 14.0 °F 80% 29.84 in 10.0 mi SSW 11.5 mph - N/A   Clear
8:15 AM 19.4 °F 6.6 °F 14.0 °F 80% 29.83 in 10.0 mi SSW 12.7 mph 17.3 mph N/A   Clear
8:35 AM 23.0 °F 11.1 °F 17.6 °F 80% 29.83 in 10.0 mi SSW 12.7 mph - N/A   Clear
8:55 AM 23.0 °F 10.6 °F 15.8 °F 74% 29.83 in 10.0 mi SSW 13.8 mph 18.4 mph N/A   Clear
9:15 AM 24.8 °F 12.9 °F 17.6 °F 74% 29.83 in 10.0 mi SSW 13.8 mph - N/A   Clear
9:35 AM 28.4 °F 18.5 °F 19.4 °F 69% 29.83 in 10.0 mi SW 11.5 mph 16.1 mph N/A   Clear
9:55 AM 30.2 °F 19.3 °F 21.2 °F 69% 29.82 in 10.0 mi WSW 15.0 mph 24.2 mph N/A   Clear
10:15 AM 32.0 °F 22.1 °F 23.0 °F 69% 29.81 in 10.0 mi SW 13.8 mph 24.2 mph N/A   Clear
10:35 AM 32.0 °F 20.5 °F 21.2 °F 64% 29.81 in 10.0 mi SW 18.4 mph 24.2 mph N/A   Clear
10:55 AM 32.0 °F 20.5 °F 21.2 °F 64% 29.81 in 10.0 mi SW 18.4 mph 28.8 mph N/A   Clear
11:35 AM 32.0 °F 22.5 °F 21.2 °F 64% 29.80 in 10.0 mi SW 12.7 mph 20.7 mph N/A   Clear
11:55 AM 32.0 °F 22.5 °F 21.2 °F 64% 29.78 in 10.0 mi SW 12.7 mph 19.6 mph N/A   Clear
12:15 PM 33.8 °F 24.8 °F 23.0 °F 65% 29.78 in 10.0 mi SW 12.7 mph 23.0 mph N/A   Scattered Clouds
12:35 PM 33.8 °F 24.3 °F 23.0 °F 65% 29.77 in 10.0 mi WSW 13.8 mph 21.9 mph N/A   Scattered Clouds
1:15 PM 33.8 °F 24.3 °F 23.0 °F 65% 29.77 in 10.0 mi WSW 13.8 mph 23.0 mph N/A   Clear
1:35 PM 33.8 °F 25.8 °F 23.0 °F 65% 29.77 in 10.0 mi WSW 10.4 mph 17.3 mph N/A   Clear
1:55 PM 33.8 °F 24.8 °F 23.0 °F 65% 29.77 in 10.0 mi SW 12.7 mph 16.1 mph N/A   Clear
2:15 PM 35.6 °F 28.6 °F 24.8 °F 65% 29.77 in 10.0 mi WSW 9.2 mph 19.6 mph N/A   Clear
2:35 PM 35.6 °F 28.0 °F 23.0 °F 60% 29.79 in 10.0 mi WSW 10.4 mph 16.1 mph N/A   Clear
2:55 PM 35.6 °F 26.6 °F 23.0 °F 60% 29.79 in 10.0 mi SW 13.8 mph 21.9 mph N/A   Clear
3:15 PM 35.6 °F 29.9 °F 23.0 °F 60% 29.79 in 10.0 mi WSW 6.9 mph - N/A   Clear
3:35 PM 35.6 °F 28.6 °F 23.0 °F 60% 29.80 in 10.0 mi WSW 9.2 mph - N/A   Clear
3:55 PM 35.6 °F 28.0 °F 24.8 °F 65% 29.80 in 10.0 mi WSW 10.4 mph - N/A   Clear
4:15 PM 33.8 °F 25.8 °F 23.0 °F 65% 29.80 in 10.0 mi SW 10.4 mph 16.1 mph N/A   Clear
4:35 PM 32.0 °F 24.8 °F 23.0 °F 69% 29.80 in 10.0 mi SW 8.1 mph - N/A   Clear
5:15 PM 32.0 °F 24.2 °F 23.0 °F 69% 29.81 in 10.0 mi SW 9.2 mph - N/A   Clear
5:35 PM 32.0 °F 23.6 °F 23.0 °F 69% 29.82 in 10.0 mi SSW 10.4 mph - N/A   Clear
5:55 PM 32.0 °F 24.2 °F 23.0 °F 69% 29.82 in 10.0 mi SW 9.2 mph - N/A   Clear
6:15 PM 32.0 °F 24.8 °F 24.8 °F 75% 29.83 in 10.0 mi SW 8.1 mph - N/A   Clear
6:35 PM 32.0 °F 24.2 °F 24.8 °F 75% 29.84 in 10.0 mi SW 9.2 mph - N/A   Clear
6:55 PM 32.0 °F 24.8 °F 24.8 °F 75% 29.84 in 10.0 mi SW 8.1 mph - N/A   Clear
7:15 PM 32.0 °F 24.8 °F 24.8 °F 75% 29.84 in 10.0 mi SW 8.1 mph - N/A   Clear
7:35 PM 32.0 °F 24.8 °F 24.8 °F 75% 29.84 in 10.0 mi SW 8.1 mph - N/A   Clear
7:55 PM 32.0 °F 25.6 °F 26.6 °F 80% 29.84 in 10.0 mi SW 6.9 mph - N/A   Clear
8:15 PM 30.2 °F 23.4 °F 23.0 °F 75% 29.84 in 10.0 mi WSW 6.9 mph - N/A   Clear
8:35 PM 30.2 °F 24.3 °F 23.0 °F 75% 29.85 in 10.0 mi WSW 5.8 mph - N/A   Clear
8:55 PM 30.2 °F 24.3 °F 23.0 °F 75% 29.85 in 10.0 mi SW 5.8 mph - N/A   Clear
9:15 PM 30.2 °F 25.4 °F 23.0 °F 75% 29.86 in 10.0 mi SW 4.6 mph - N/A   Clear
9:35 PM 30.2 °F 25.4 °F 23.0 °F 75% 29.86 in 10.0 mi SW 4.6 mph - N/A   Clear
9:55 PM 28.4 °F 23.3 °F 23.0 °F 80% 29.87 in 10.0 mi SW 4.6 mph - N/A   Clear
10:15 PM 28.4 °F 23.3 °F 21.2 °F 74% 29.87 in 10.0 mi SW 4.6 mph - N/A   Clear
10:35 PM 28.4 °F 24.6 °F 21.2 °F 74% 29.88 in 10.0 mi WSW 3.5 mph - N/A   Clear
10:55 PM 28.4 °F 24.6 °F 23.0 °F 80% 29.88 in 10.0 mi SW 3.5 mph - N/A   Clear
11:15 PM 28.4 °F 23.3 °F 23.0 °F 80% 29.88 in 10.0 mi SW 4.6 mph - N/A   Clear
11:35 PM 28.4 °F 24.6 °F 23.0 °F 80% 29.89 in 10.0 mi SW 3.5 mph - N/A   Clear
11:55 PM 24.8 °F 20.5 °F 21.2 °F 86% 29.90 in 10.0 mi SW 3.5 mph - N/A   Clear